sat.trackr.live / text

‹ back to catalog

YAOGAN-30 05B

NORAD 43171 · 2018-011C

PAYLOAD ACTIVE UNKNOWN

§ Identity

Operator
Country
PRC
Launch date
2018-01-25
Launch site
XICLF
Launch vehicle
Mass (kg)
RCS (m²)

External: N2YO · Heavens-Above · Gunter

§ Orbital elements

Epoch: 2026-09-13T04:30:13.023072Z

Period
95.81 min
Inclination
34.9964°
Eccentricity
0.0001469
Mean motion
15.02997568 rev/d
Perigee alt
556.6 km
Apogee alt
558.7 km
Semi-major
6,935.8 km
B*
1.3951e-4
RAAN
334.2143°
Arg perigee
12.4073°
Mean anomaly
347.6672°
Rev number
47,146

§ Raw data

YAOGAN-30 05B1 43171U 18011C   26256.18765073  .00001886  00000+0  13951-3 0  99992 43171  34.9964 334.2143 0001469  12.4073 347.6672 15.02997568471469

JSON: /api/v1/satellites/43171 · /tle

For live sub-satellite position, see the globe view (requires WebGL).

§ Visibility from observer

Set your observer location to see the next 7 days of passes ≥ 10°. The values pass through the URL so the page stays shareable.

No JS? Fill the form by hand. The geolocation button needs JavaScript.